Time,TemperatureF,DewpointF,PressureIn,WindDirection,WindDirectionDegrees,WindSpeedMPH,WindSpeedGustMPH,Humidity,HourlyPrecipIn,Conditions,Clouds,dailyrainin,SoftwareType,DateUTC
2013-01-15 00:01:00,42.0,7.0,30.37,NNE,24,7.0,-999.0,23,-99.99,,,-99.99,,2013-01-15 08:01:00,
2013-01-15 00:11:00,42.0,7.0,30.37,NNE,24,7.0,-999.0,23,-99.99,,,-99.99,,2013-01-15 08:11:00,
2013-01-15 00:22:00,42.0,8.0,30.37,North,360,3.0,-999.0,24,-99.99,,,-99.99,,2013-01-15 08:22:00,
2013-01-15 00:32:00,41.0,7.0,30.37,North,9,2.0,-999.0,24,-99.99,,,-99.99,,2013-01-15 08:32:00,
2013-01-15 00:42:00,41.0,7.0,30.37,North,9,2.0,-999.0,24,-99.99,,,-99.99,,2013-01-15 08:42:00,
2013-01-15 00:52:00,41.0,7.0,30.38,NNE,17,2.0,-999.0,24,-99.99,,,-99.99,,2013-01-15 08:52:00,
2013-01-15 01:02:00,42.0,8.0,30.38,NNE,25,3.0,-999.0,24,-99.99,,,-99.99,,2013-01-15 09:02:00,
2013-01-15 01:11:00,42.0,8.0,30.38,NNE,25,3.0,-999.0,24,-99.99,,,-99.99,,2013-01-15 09:11:00,
2013-01-15 01:22:00,42.0,8.0,30.38,NNE,18,4.0,-999.0,24,-99.99,,,-99.99,,2013-01-15 09:22:00,
2013-01-15 01:32:00,42.0,8.0,30.40,NNE,27,3.0,-999.0,24,-99.99,,,-99.99,,2013-01-15 09:32:00,
2013-01-15 01:42:00,42.0,8.0,30.40,NNE,27,3.0,-999.0,24,-99.99,,,-99.99,,2013-01-15 09:42:00,
2013-01-15 01:52:00,42.0,8.0,30.40,NNE,19,3.0,-999.0,24,-99.99,,,-99.99,,2013-01-15 09:52:00,
2013-01-15 02:01:00,42.0,8.0,30.40,NNE,31,3.0,-999.0,24,-99.99,,,-99.99,,2013-01-15 10:01:00,
2013-01-15 02:11:00,42.0,8.0,30.40,NNE,31,3.0,-999.0,24,-99.99,,,-99.99,,2013-01-15 10:11:00,
2013-01-15 02:22:00,42.0,9.0,30.40,NE,53,1.0,-999.0,25,-99.99,,,-99.99,,2013-01-15 10:22:00,
2013-01-15 02:32:00,42.0,8.0,30.40,NNE,31,3.0,-999.0,24,-99.99,,,-99.99,,2013-01-15 10:32:00,
2013-01-15 02:42:00,42.0,8.0,30.40,NNE,31,3.0,-999.0,24,-99.99,,,-99.99,,2013-01-15 10:42:00,
2013-01-15 02:52:00,42.0,9.0,30.40,ENE,69,0.0,-999.0,25,-99.99,,,-99.99,,2013-01-15 10:52:00,
2013-01-15 03:02:00,42.0,9.0,30.39,NNE,23,2.0,-999.0,25,-99.99,,,-99.99,,2013-01-15 11:02:00,
2013-01-15 03:11:00,42.0,9.0,30.39,NNE,23,2.0,-999.0,25,-99.99,,,-99.99,,2013-01-15 11:11:00,
2013-01-15 03:22:00,42.0,9.0,30.39,NNE,23,2.0,-999.0,25,-99.99,,,-99.99,,2013-01-15 11:22:00,
2013-01-15 03:32:00,45.0,10.0,30.38,NE,34,7.0,-999.0,24,-99.99,,,-99.99,,2013-01-15 11:32:00,
2013-01-15 03:42:00,45.0,10.0,30.38,NE,34,7.0,-999.0,24,-99.99,,,-99.99,,2013-01-15 11:42:00,
2013-01-15 03:53:00,45.0,9.0,30.39,NE,53,6.0,-999.0,23,-99.99,,,-99.99,,2013-01-15 11:53:00,
2013-01-15 04:02:00,45.0,10.0,30.38,North,360,3.0,-999.0,24,-99.99,,,-99.99,,2013-01-15 12:02:00,
2013-01-15 04:11:00,45.0,10.0,30.38,North,360,3.0,-999.0,24,-99.99,,,-99.99,,2013-01-15 12:11:00,
2013-01-15 04:22:00,45.0,9.0,30.38,NNE,30,6.0,-999.0,23,-99.99,,,-99.99,,2013-01-15 12:22:00,
2013-01-15 04:32:00,45.0,9.0,30.38,NNE,14,7.0,-999.0,23,-99.99,,,-99.99,,2013-01-15 12:32:00,
2013-01-15 04:42:00,45.0,9.0,30.38,NNE,14,7.0,-999.0,23,-99.99,,,-99.99,,2013-01-15 12:42:00,
2013-01-15 04:53:00,45.0,10.0,30.37,NNE,15,6.0,-999.0,24,-99.99,,,-99.99,,2013-01-15 12:53:00,
2013-01-15 05:02:00,45.0,10.0,30.37,NNE,19,5.0,-999.0,24,-99.99,,,-99.99,,2013-01-15 13:02:00,
2013-01-15 05:12:00,45.0,10.0,30.37,NNE,19,5.0,-999.0,24,-99.99,,,-99.99,,2013-01-15 13:12:00,
2013-01-15 05:22:00,45.0,10.0,30.37,North,5,4.0,-999.0,24,-99.99,,,-99.99,,2013-01-15 13:22:00,
2013-01-15 05:32:00,44.0,10.0,30.39,NNE,17,3.0,-999.0,25,-99.99,,,-99.99,,2013-01-15 13:32:00,
2013-01-15 05:42:00,44.0,10.0,30.39,NNE,17,3.0,-999.0,25,-99.99,,,-99.99,,2013-01-15 13:42:00,
2013-01-15 05:53:00,45.0,11.0,30.38,NNE,19,4.0,-999.0,25,-99.99,,,-99.99,,2013-01-15 13:53:00,
2013-01-15 06:02:00,45.0,10.0,30.38,NNE,33,7.0,-999.0,24,-99.99,,,-99.99,,2013-01-15 14:02:00,
2013-01-15 06:12:00,45.0,10.0,30.38,NNE,33,7.0,-999.0,24,-99.99,,,-99.99,,2013-01-15 14:12:00,
2013-01-15 06:22:00,44.0,10.0,30.39,NNE,14,5.0,-999.0,25,-99.99,,,-99.99,,2013-01-15 14:22:00,
2013-01-15 06:32:00,44.0,10.0,30.39,NNE,24,5.0,-999.0,25,-99.99,,,-99.99,,2013-01-15 14:32:00,
2013-01-15 06:42:00,44.0,10.0,30.39,NNE,24,5.0,-999.0,25,-99.99,,,-99.99,,2013-01-15 14:42:00,
2013-01-15 06:53:00,44.0,10.0,30.39,NNE,28,4.0,-999.0,25,-99.99,,,-99.99,,2013-01-15 14:53:00,
2013-01-15 07:02:00,44.0,10.0,30.40,NE,43,7.0,-999.0,25,-99.99,,,-99.99,,2013-01-15 15:02:00,
2013-01-15 07:12:00,44.0,10.0,30.40,NE,43,7.0,-999.0,25,-99.99,,,-99.99,,2013-01-15 15:12:00,
2013-01-15 07:23:00,44.0,10.0,30.40,NNE,30,7.0,-999.0,25,-99.99,,,-99.99,,2013-01-15 15:23:00,
2013-01-15 07:32:00,45.0,11.0,30.40,NNE,21,5.0,-999.0,25,-99.99,,,-99.99,,2013-01-15 15:32:00,
2013-01-15 07:42:00,45.0,11.0,30.40,NNE,21,5.0,-999.0,25,-99.99,,,-99.99,,2013-01-15 15:42:00,
2013-01-15 07:53:00,45.0,12.0,30.41,NNE,24,6.0,-999.0,26,-99.99,,,-99.99,,2013-01-15 15:53:00,
2013-01-15 08:02:00,45.0,12.0,30.43,NNE,25,2.0,-999.0,26,-99.99,,,-99.99,,2013-01-15 16:02:00,
2013-01-15 08:11:00,45.0,12.0,30.43,NNE,25,2.0,-999.0,26,-99.99,,,-99.99,,2013-01-15 16:11:00,
2013-01-15 08:22:00,46.0,13.0,30.43,ENE,69,2.0,-999.0,26,-99.99,,,-99.99,,2013-01-15 16:22:00,
2013-01-15 08:32:00,47.0,14.0,30.44,NNE,20,4.0,-999.0,26,-99.99,,,-99.99,,2013-01-15 16:32:00,
2013-01-15 08:42:00,47.0,14.0,30.44,NNE,20,4.0,-999.0,26,-99.99,,,-99.99,,2013-01-15 16:42:00,
2013-01-15 08:53:00,48.0,15.0,30.43,North,360,5.0,-999.0,26,-99.99,,,-99.99,,2013-01-15 16:53:00,
2013-01-15 09:02:00,48.0,15.0,30.44,NNE,12,7.0,-999.0,26,-99.99,,,-99.99,,2013-01-15 17:02:00,
2013-01-15 09:12:00,48.0,15.0,30.44,NNE,12,7.0,-999.0,26,-99.99,,,-99.99,,2013-01-15 17:12:00,
2013-01-15 09:22:00,49.0,15.0,30.45,NE,52,5.0,-999.0,25,-99.99,,,-99.99,,2013-01-15 17:22:00,
2013-01-15 09:32:00,49.0,15.0,30.45,NE,52,5.0,-999.0,25,-99.99,,,-99.99,,2013-01-15 17:32:00,
2013-01-15 09:42:00,49.0,15.0,30.45,NE,52,5.0,-999.0,25,-99.99,,,-99.99,,2013-01-15 17:42:00,
2013-01-15 09:53:00,50.0,16.0,30.45,North,5,6.0,-999.0,26,-99.99,,,-99.99,,2013-01-15 17:53:00,
2013-01-15 10:02:00,51.0,17.0,30.45,North,11,5.0,-999.0,26,-99.99,,,-99.99,,2013-01-15 18:02:00,
2013-01-15 10:12:00,51.0,17.0,30.45,North,11,5.0,-999.0,26,-99.99,,,-99.99,,2013-01-15 18:12:00,
2013-01-15 10:22:00,51.0,17.0,30.45,North,11,5.0,-999.0,26,-99.99,,,-99.99,,2013-01-15 18:22:00,
2013-01-15 10:33:00,52.0,18.0,30.45,NNE,14,3.0,-999.0,26,-99.99,,,-99.99,,2013-01-15 18:33:00,
2013-01-15 10:42:00,52.0,18.0,30.45,NNE,14,3.0,-999.0,26,-99.99,,,-99.99,,2013-01-15 18:42:00,
2013-01-15 10:52:00,53.0,18.0,30.45,NE,37,4.0,-999.0,25,-99.99,,,-99.99,,2013-01-15 18:52:00,
2013-01-15 11:03:00,54.0,20.0,30.44,NE,44,3.0,-999.0,26,-99.99,,,-99.99,,2013-01-15 19:03:00,
2013-01-15 11:12:00,54.0,20.0,30.44,NE,44,3.0,-999.0,26,-99.99,,,-99.99,,2013-01-15 19:12:00,
2013-01-15 11:22:00,55.0,21.0,30.43,NNE,32,7.0,-999.0,26,-99.99,,,-99.99,,2013-01-15 19:22:00,
2013-01-15 11:33:00,55.0,21.0,30.41,NE,44,7.0,-999.0,26,-99.99,,,-99.99,,2013-01-15 19:33:00,
2013-01-15 11:42:00,55.0,21.0,30.41,NE,44,7.0,-999.0,26,-99.99,,,-99.99,,2013-01-15 19:42:00,
2013-01-15 11:52:00,56.0,22.0,30.40,NNE,16,6.0,-999.0,26,-99.99,,,-99.99,,2013-01-15 19:52:00,
2013-01-15 12:02:00,57.0,22.0,30.40,North,9,6.0,-999.0,26,-99.99,,,-99.99,,2013-01-15 20:02:00,
2013-01-15 12:12:00,57.0,22.0,30.40,North,9,6.0,-999.0,26,-99.99,,,-99.99,,2013-01-15 20:12:00,
2013-01-15 12:22:00,57.0,22.0,30.39,North,11,5.0,-999.0,26,-99.99,,,-99.99,,2013-01-15 20:22:00,
2013-01-15 12:33:00,57.0,22.0,30.37,NNE,33,5.0,-999.0,26,-99.99,,,-99.99,,2013-01-15 20:33:00,
2013-01-15 12:43:00,57.0,22.0,30.37,NNE,33,5.0,-999.0,26,-99.99,,,-99.99,,2013-01-15 20:43:00,
2013-01-15 12:52:00,58.0,24.0,30.37,ENE,69,5.0,-999.0,27,-99.99,,,-99.99,,2013-01-15 20:52:00,
2013-01-15 13:02:00,58.0,24.0,30.36,North,9,5.0,-999.0,27,-99.99,,,-99.99,,2013-01-15 21:02:00,
2013-01-15 13:12:00,58.0,24.0,30.36,North,9,5.0,-999.0,27,-99.99,,,-99.99,,2013-01-15 21:12:00,
2013-01-15 13:22:00,59.0,25.0,30.35,North,360,5.0,-999.0,27,-99.99,,,-99.99,,2013-01-15 21:22:00,
2013-01-15 13:33:00,59.0,26.0,30.35,NE,43,4.0,-999.0,28,-99.99,,,-99.99,,2013-01-15 21:33:00,
2013-01-15 13:42:00,59.0,26.0,30.35,NE,43,4.0,-999.0,28,-99.99,,,-99.99,,2013-01-15 21:42:00,
2013-01-15 13:52:00,59.0,25.0,30.35,NE,52,4.0,-999.0,27,-99.99,,,-99.99,,2013-01-15 21:52:00,
2013-01-15 14:02:00,59.0,24.0,30.35,NNE,21,6.0,-999.0,26,-99.99,,,-99.99,,2013-01-15 22:02:00,
2013-01-15 14:12:00,59.0,24.0,30.35,NNE,21,6.0,-999.0,26,-99.99,,,-99.99,,2013-01-15 22:12:00,
2013-01-15 14:22:00,59.0,25.0,30.34,NE,56,6.0,-999.0,27,-99.99,,,-99.99,,2013-01-15 22:22:00,
2013-01-15 14:32:00,59.0,25.0,30.35,NNE,22,5.0,-999.0,27,-99.99,,,-99.99,,2013-01-15 22:32:00,
2013-01-15 14:42:00,59.0,25.0,30.35,NNE,22,5.0,-999.0,27,-99.99,,,-99.99,,2013-01-15 22:42:00,
2013-01-15 14:52:00,59.0,25.0,30.34,North,9,5.0,-999.0,27,-99.99,,,-99.99,,2013-01-15 22:52:00,
2013-01-15 15:02:00,59.0,24.0,30.35,NNE,30,5.0,-999.0,26,-99.99,,,-99.99,,2013-01-15 23:02:00,
2013-01-15 15:12:00,59.0,24.0,30.35,NNE,30,5.0,-999.0,26,-99.99,,,-99.99,,2013-01-15 23:12:00,
2013-01-15 15:22:00,60.0,25.0,30.34,NE,35,5.0,-999.0,26,-99.99,,,-99.99,,2013-01-15 23:22:00,
2013-01-15 15:32:00,60.0,25.0,30.34,NE,35,5.0,-999.0,26,-99.99,,,-99.99,,2013-01-15 23:32:00,
2013-01-15 15:42:00,60.0,25.0,30.34,NE,35,5.0,-999.0,26,-99.99,,,-99.99,,2013-01-15 23:42:00,
2013-01-15 15:52:00,59.0,24.0,30.34,NNE,19,6.0,-999.0,26,-99.99,,,-99.99,,2013-01-15 23:52:00,
2013-01-15 16:02:00,58.0,24.0,30.34,NE,34,7.0,-999.0,27,-99.99,,,-99.99,,2013-01-16 00:02:00,
2013-01-15 16:12:00,58.0,24.0,30.34,NE,34,7.0,-999.0,27,-99.99,,,-99.99,,2013-01-16 00:12:00,
2013-01-15 16:22:00,58.0,24.0,30.34,NNE,19,8.0,-999.0,27,-99.99,,,-99.99,,2013-01-16 00:22:00,
2013-01-15 16:32:00,57.0,23.0,30.34,NNE,28,6.0,-999.0,27,-99.99,,,-99.99,,2013-01-16 00:32:00,
2013-01-15 16:42:00,57.0,23.0,30.34,NNE,28,6.0,-999.0,27,-99.99,,,-99.99,,2013-01-16 00:42:00,
2013-01-15 16:52:00,57.0,23.0,30.34,NNE,26,6.0,-999.0,27,-99.99,,,-99.99,,2013-01-16 00:52:00,
2013-01-15 17:02:00,57.0,23.0,30.34,NNW,344,6.0,-999.0,27,-99.99,,,-99.99,,2013-01-16 01:02:00,
2013-01-15 17:12:00,57.0,23.0,30.34,NNW,344,6.0,-999.0,27,-99.99,,,-99.99,,2013-01-16 01:12:00,
2013-01-15 17:22:00,56.0,23.0,30.35,NNE,28,6.0,-999.0,27,-99.99,,,-99.99,,2013-01-16 01:22:00,
2013-01-15 17:32:00,55.0,22.0,30.35,NNE,14,4.0,-999.0,27,-99.99,,,-99.99,,2013-01-16 01:32:00,
2013-01-15 17:42:00,55.0,22.0,30.35,NNE,14,4.0,-999.0,27,-99.99,,,-99.99,,2013-01-16 01:42:00,
2013-01-15 17:52:00,55.0,23.0,30.35,NNE,28,2.0,-999.0,28,-99.99,,,-99.99,,2013-01-16 01:52:00,
2013-01-15 18:02:00,55.0,23.0,30.35,NNE,28,2.0,-999.0,28,-99.99,,,-99.99,,2013-01-16 02:02:00,
2013-01-15 18:12:00,55.0,23.0,30.35,NNE,28,2.0,-999.0,28,-99.99,,,-99.99,,2013-01-16 02:12:00,
2013-01-15 18:22:00,51.0,29.0,30.36,NNE,23,0.0,-999.0,42,-99.99,,,-99.99,,2013-01-16 02:22:00,
2013-01-15 18:32:00,50.0,28.0,30.36,NNE,23,0.0,-999.0,43,-99.99,,,-99.99,,2013-01-16 02:32:00,
2013-01-15 18:42:00,50.0,28.0,30.36,NNE,23,0.0,-999.0,43,-99.99,,,-99.99,,2013-01-16 02:42:00,
2013-01-15 18:52:00,49.0,29.0,30.36,NNE,15,0.0,-999.0,45,-99.99,,,-99.99,,2013-01-16 02:52:00,
2013-01-15 19:02:00,48.0,32.0,30.36,NNE,25,1.0,-999.0,53,-99.99,,,-99.99,,2013-01-16 03:02:00,
2013-01-15 19:11:00,48.0,32.0,30.36,NNE,25,1.0,-999.0,53,-99.99,,,-99.99,,2013-01-16 03:11:00,
2013-01-15 19:22:00,51.0,24.0,30.36,NNE,18,3.0,-999.0,34,-99.99,,,-99.99,,2013-01-16 03:22:00,
2013-01-15 19:32:00,52.0,24.0,30.37,North,355,2.0,-999.0,33,-99.99,,,-99.99,,2013-01-16 03:32:00,
2013-01-15 19:42:00,52.0,24.0,30.37,North,355,2.0,-999.0,33,-99.99,,,-99.99,,2013-01-16 03:42:00,
2013-01-15 19:52:00,52.0,23.0,30.36,NNE,27,1.0,-999.0,32,-99.99,,,-99.99,,2013-01-16 03:52:00,
2013-01-15 20:02:00,52.0,22.0,30.36,NNE,19,2.0,-999.0,31,-99.99,,,-99.99,,2013-01-16 04:02:00,
2013-01-15 20:12:00,52.0,22.0,30.36,NNE,19,2.0,-999.0,31,-99.99,,,-99.99,,2013-01-16 04:12:00,
2013-01-15 20:22:00,52.0,22.0,30.37,NNE,28,5.0,-999.0,30,-99.99,,,-99.99,,2013-01-16 04:22:00,
2013-01-15 20:32:00,52.0,22.0,30.37,NNE,17,4.0,-999.0,30,-99.99,,,-99.99,,2013-01-16 04:32:00,
2013-01-15 20:42:00,52.0,22.0,30.37,NNE,17,4.0,-999.0,30,-99.99,,,-99.99,,2013-01-16 04:42:00,
2013-01-15 20:51:00,52.0,22.0,30.36,NNE,33,3.0,-999.0,31,-99.99,,,-99.99,,2013-01-16 04:51:00,
2013-01-15 20:52:00,52.0,22.0,30.36,NNE,25,3.0,-999.0,31,-99.99,,,-99.99,,2013-01-16 04:52:00,
2013-01-15 21:03:00,52.0,22.0,30.36,North,11,2.0,-999.0,30,-99.99,,,-99.99,,2013-01-16 05:03:00,
2013-01-15 21:12:00,52.0,22.0,30.36,North,11,2.0,-999.0,30,-99.99,,,-99.99,,2013-01-16 05:12:00,
2013-01-15 21:22:00,52.0,22.0,30.36,NNE,33,3.0,-999.0,31,-99.99,,,-99.99,,2013-01-16 05:22:00,
2013-01-15 21:32:00,52.0,22.0,30.36,NNE,33,3.0,-999.0,31,-99.99,,,-99.99,,2013-01-16 05:32:00,
2013-01-15 21:42:00,52.0,22.0,30.36,NNE,33,3.0,-999.0,31,-99.99,,,-99.99,,2013-01-16 05:42:00,
2013-01-15 22:22:00,52.0,22.0,30.36,NNE,29,3.0,-999.0,31,-99.99,,,-99.99,,2013-01-16 06:22:00,
2013-01-15 22:32:00,53.0,22.0,30.37,NNE,22,6.0,-999.0,30,-99.99,,,-99.99,,2013-01-16 06:32:00,
2013-01-15 22:42:00,53.0,22.0,30.37,NNE,22,6.0,-999.0,30,-99.99,,,-99.99,,2013-01-16 06:42:00,
2013-01-15 22:52:00,52.0,22.0,30.36,NNE,21,5.0,-999.0,31,-99.99,,,-99.99,,2013-01-16 06:52:00,
2013-01-15 23:02:00,52.0,22.0,30.37,NNE,22,3.0,-999.0,31,-99.99,,,-99.99,,2013-01-16 07:02:00,
2013-01-15 23:11:00,52.0,22.0,30.37,NNE,22,3.0,-999.0,31,-99.99,,,-99.99,,2013-01-16 07:11:00,
2013-01-15 23:22:00,53.0,23.0,30.36,NE,37,4.0,-999.0,31,-99.99,,,-99.99,,2013-01-16 07:22:00,
2013-01-15 23:32:00,53.0,23.0,30.37,ENE,78,3.0,-999.0,31,-99.99,,,-99.99,,2013-01-16 07:32:00,
2013-01-15 23:42:00,53.0,23.0,30.37,ENE,78,3.0,-999.0,31,-99.99,,,-99.99,,2013-01-16 07:42:00,
2013-01-15 23:52:00,52.0,23.0,30.36,ENE,64,1.0,-999.0,32,-99.99,,,-99.99,,2013-01-16 07:52:00,